DW5670 Weather Reports


Display with metric or nautical units.
time (UTC)temp
F
wind
direction
speed
MPH
gust
MPH
rain 1hr
in
rain 24hr
in
rain mn
in
humidity
%
barometer
mb
20191122125505 80 346 1.0 8.0 0.00 0.05 0.01 55 1024.0
20191122124505 80 0 0.0 7.0 0.00 0.05 0.01 49 1023.4
20191122123505 81 335 1.0 13.0 0.00 0.05 0.01 50 1023.9
20191122123004 81 0 0.0 13.0 0.00 0.05 0.01 51 1024.0
20191122122505 81 305 1.0 6.0 0.00 0.05 0.01 48 1024.0
20191122122004 82 320 1.0 9.0 0.00 0.05 0.01 46 1023.9
20191122121504 83 333 1.0 12.0 0.00 0.05 0.01 44 1024.0
20191122121004 84 330 2.0 12.0 0.00 0.05 0.01 46 1024.4
20191122115003 83 359 3.0 13.0 0.00 0.05 0.01 50 1024.5
20191122114505 84 349 2.0 12.0 0.00 0.05 0.01 50 1024.6
20191122114004 84 332 1.0 9.0 0.00 0.05 0.01 49 1024.7
20191122113004 83 347 2.0 8.0 0.00 0.05 0.01 50 1024.8
20191122112505 83 334 2.0 8.0 0.00 0.05 0.01 52 1025.0
20191122112004 83 316 1.0 8.0 0.00 0.05 0.01 46 1024.9
20191122111504 82 304 2.0 8.0 0.00 0.05 0.01 54 1025.2
20191122111004 82 303 2.0 8.0 0.00 0.05 0.01 53 1025.2
20191122110505 82 297 1.0 8.0 0.00 0.05 0.01 54 1025.5
20191122110004 83 296 1.0 6.0 0.00 0.05 0.01 52 1025.4
20191122105505 83 308 1.0 7.0 0.00 0.05 0.01 56 1025.9
20191122104504 82 312 2.0 7.0 0.00 0.05 0.01 55 1025.5
20191122104004 82 320 2.0 7.0 0.00 0.05 0.01 55 1025.6
20191122103505 82 309 2.0 9.0 0.00 0.05 0.01 56 1025.9
20191122103004 81 312 2.0 11.0 0.00 0.05 0.01 57 1025.8
20191122102504 81 329 2.0 11.0 0.00 0.05 0.01 56 1025.9
20191122101505 81 321 3.0 10.0 0.00 0.05 0.01 58 1026.3
20191122100504 80 337 2.0 10.0 0.00 0.05 0.01 58 1026.1
20191122100005 81 329 2.0 10.0 0.00 0.05 0.01 57 1026.1
20191122095505 81 325 2.0 9.0 0.00 0.05 0.01 56 1026.1
20191122095004 81 343 2.0 10.0 0.00 0.05 0.01 59 1026.5
20191122094504 80 359 2.0 10.0 0.00 0.05 0.01 63 1026.3
20191122093505 80 327 1.0 8.0 0.00 0.05 0.01 59 1026.6
20191122093004 80 298 1.0 8.0 0.00 0.05 0.01 57 1026.3
20191122092505 80 322 1.0 8.0 0.00 0.05 0.01 62 1026.5
20191122091005 80 350 1.0 7.0 0.00 0.05 0.01 60 1026.7
20191122090004 79 0 0.0 5.0 0.00 0.05 0.01 63 1026.8
20191122085505 78 0 0.0 4.0 0.00 0.05 0.01 62 1026.3
20191122085004 79 0 0.0 3.0 0.00 0.05 0.01 62 1026.9
20191122084506 79 0 0.0 4.0 0.00 0.05 0.01 62 1026.8
20191122084005 78 324 1.0 10.0 0.00 0.05 0.01 62 1026.5
20191122083504 78 326 1.0 10.0 0.00 0.05 0.01 61 1026.5
20191122082505 77 350 1.0 6.0 0.00 0.05 0.01 62 1026.5
20191122082004 77 0 0.0 4.0 0.00 0.05 0.01 62 1026.6
20191122081004 77 321 1.0 7.0 0.00 0.05 0.01 65 1026.9
20191122080505 77 323 1.0 7.0 0.00 0.05 0.01 62 1026.7
20191122080004 77 0 0.0 4.0 0.00 0.05 0.01 63 1026.7
20191122075505 76 321 1.0 4.0 0.00 0.05 0.01 63 1026.7
20191122075005 76 355 1.0 6.0 0.00 0.05 0.01 62 1026.8
20191122074004 75 0 0.0 4.0 0.00 0.05 0.01 64 1026.9
20191122072004 74 343 1.0 4.0 0.00 0.05 0.01 67 1026.9
20191122071504 74 340 1.0 5.0 0.00 0.05 0.01 68 1026.9
20191122070004 73 0 0.0 4.0 0.00 0.05 0.01 69 1026.9
20191122065504 74 0 0.0 4.0 0.00 0.05 0.01 68 1026.6
20191122064003 72 0 0.0 5.0 0.00 0.05 0.01 72 1026.6
20191122063504 72 0 0.0 5.0 0.00 0.05 0.01 72 1026.5
20191122061505 71 0 0.0 1.0 0.00 0.05 0.01 73 1026.6
20191122061005 71 0 0.0 0.0 0.00 0.05 0.01 73 1026.6
20191122060505 71 0 0.0 0.0 0.00 0.05 0.01 76 1026.6
20191122060004 70 0 0.0 2.0 0.00 0.05 0.01 76 1026.7
20191122055505 69 0 0.0 2.0 0.00 0.05 0.01 74 1026.8
20191122054505 69 0 0.0 1.0 0.00 0.05 0.01 79 1026.8
20191122054004 68 0 0.0 1.0 0.00 0.05 0.01 79 1027.0
20191122053005 67 0 0.0 3.0 0.00 0.05 0.01 81 1027.0
20191122051506 65 0 0.0 1.0 0.00 0.05 0.01 87 1027.1
20191122051004 65 0 0.0 0.0 0.00 0.05 0.01 86 1027.3
20191122050505 64 0 0.0 0.0 0.00 0.05 0.01 87 1027.0
20191122045504 63 0 0.0 1.0 0.00 0.05 0.01 87 1027.0
20191122045004 62 0 0.0 0.0 0.00 0.05 0.01 87 1027.1
20191122044505 62 0 0.0 0.0 0.00 0.05 0.01 87 1026.7
20191122043504 60 0 0.0 0.0 0.00 0.05 0.01 87 1026.7
20191122042505 60 0 0.0 0.0 0.00 0.05 0.01 87 1026.4
20191122041004 59 0 0.0 0.0 0.00 0.05 0.01 87 1026.1
20191122035004 58 0 0.0 0.0 0.00 0.05 0.01 87 1025.7
20191122034505 58 0 0.0 0.0 0.00 0.05 0.01 87 1025.5
20191122033004 58 0 0.0 0.0 0.00 0.05 0.01 87 1025.2
20191122032504 58 0 0.0 0.0 0.00 0.05 0.01 87 1025.1
20191122031505 58 0 0.0 0.0 0.00 0.05 0.01 87 1025.0
20191122031006 58 0 0.0 0.0 0.00 0.05 0.01 87 1024.8
20191122025505 58 0 0.0 0.0 0.00 0.05 0.01 87 1024.8
20191122024007 59 0 0.0 0.0 0.01 0.05 0.01 87 1024.3
20191122023007 59 0 0.0 0.0 0.01 0.05 0.01 87 1024.2
20191122022504 59 0 0.0 0.0 0.01 0.06 0.01 87 1024.2
20191122022004 59 0 0.0 0.0 0.01 0.06 0.01 87 1024.1
20191122021008 59 0 0.0 0.0 0.01 0.09 0.01 87 1024.0
20191122020504 59 0 0.0 0.0 0.01 0.09 0.01 87 1024.1
20191122020004 59 0 0.0 0.0 0.01 0.09 0.01 87 1024.3
20191122015505 59 0 0.0 0.0 0.01 0.10 0.01 87 1024.5
20191122015007 60 0 0.0 0.0 0.01 0.10 0.01 86 1024.4
20191122014504 60 0 0.0 0.0 0.00 0.09 0.00 87 1024.6
20191122014006 60 0 0.0 0.0 0.00 0.09 0.00 87 1024.5
20191122013504 60 0 0.0 0.0 0.00 0.09 0.00 87 1024.5
20191122012008 60 0 0.0 0.0 0.00 0.09 0.00 86 1024.7
20191122011504 60 0 0.0 0.0 0.00 0.09 0.00 86 1024.7
20191122010506 60 0 0.0 0.0 0.00 0.09 0.00 86 1024.8
20191122010005 60 0 0.0 0.0 0.00 0.09 0.00 86 1024.9
20191122004504 61 0 0.0 0.0 0.00 0.09 0.00 86 1025.2
20191122004005 61 0 0.0 0.0 0.00 0.09 0.00 86 1025.2
20191122003504 61 0 0.0 0.0 0.00 0.09 0.00 86 1025.1
20191122003005 61 0 0.0 0.0 0.00 0.09 0.00 86 1025.1
20191122002504 61 0 0.0 0.0 0.00 0.09 0.00 86 1025.3
20191122001504 62 0 0.0 0.0 0.00 0.09 0.00 86 1025.2
20191122001005 62 0 0.0 0.0 0.00 0.09 0.00 86 1025.0
20191122000504 62 0 0.0 0.0 0.00 0.09 0.00 86 1025.0
20191122000005 62 0 0.0 0.0 0.00 0.09 0.00 86 1025.0
20191121235504 62 0 0.0 0.0 0.00 0.09 0.00 86 1025.2
20191121234005 63 0 0.0 0.0 0.00 0.09 0.00 86 1025.4
20191121233504 63 0 0.0 0.0 0.00 0.09 0.00 86 1025.4
20191121232504 63 0 0.0 0.0 0.00 0.09 0.00 85 1025.2
20191121231504 63 0 0.0 0.0 0.00 0.09 0.00 86 1025.3
20191121231005 63 0 0.0 0.0 0.00 0.09 0.00 86 1025.5
20191121230504 63 0 0.0 0.0 0.00 0.09 0.00 86 1025.5
20191121225504 63 0 0.0 0.0 0.00 0.10 0.00 85 1025.2
20191121225005 64 0 0.0 0.0 0.00 0.12 0.00 85 1025.1
20191121224004 64 0 0.0 0.0 0.00 0.13 0.00 85 1025.0
20191121223005 64 0 0.0 0.0 0.00 0.13 0.00 85 1025.2
20191121221504 64 0 0.0 0.0 0.00 0.17 0.00 85 1025.6
20191121220504 64 0 0.0 1.0 0.00 0.26 0.00 85 1026.0
20191121215504 63 276 1.0 11.0 0.00 0.38 0.33 86 1025.6
20191121215004 63 273 1.0 11.0 0.00 0.39 0.33 86 1026.2
20191121214005 63 0 0.0 0.0 0.00 0.46 0.33 86 1025.7
20191121213503 63 0 0.0 0.0 0.00 0.48 0.33 86 1025.5
20191121213005 63 0 0.0 0.0 0.00 0.49 0.33 86 1025.3
20191121212005 63 0 0.0 0.0 0.00 0.50 0.33 86 1025.2
20191121211505 63 0 0.0 0.0 0.00 0.50 0.33 86 1025.1
20191121210005 63 0 0.0 0.0 0.00 0.50 0.33 86 1025.3
20191121204505 63 0 0.0 0.0 0.01 0.50 0.33 86 1025.2
20191121204006 63 0 0.0 0.0 0.01 0.50 0.33 86 1025.3
20191121203005 63 0 0.0 0.0 0.01 0.50 0.33 86 1025.4
20191121202504 63 0 0.0 0.0 0.01 0.50 0.33 85 1025.4
20191121201005 63 0 0.0 0.0 0.01 0.50 0.33 85 1025.2
20191121200005 64 0 0.0 0.0 0.02 0.50 0.33 85 1025.3
20191121195503 64 0 0.0 0.0 0.02 0.50 0.33 85 1025.1
20191121195005 64 0 0.0 0.0 0.01 0.50 0.32 85 1025.1
20191121194504 64 0 0.0 0.0 0.01 0.50 0.32 85 1025.2
20191121194004 64 0 0.0 0.0 0.01 0.50 0.32 85 1025.2
20191121192504 64 0 0.0 0.0 0.02 0.50 0.32 84 1025.4
20191121192005 64 0 0.0 2.0 0.02 0.50 0.32 85 1025.5
20191121191505 64 0 0.0 2.0 0.02 0.50 0.32 85 1025.7
20191121191005 65 0 0.0 3.0 0.02 0.50 0.32 85 1025.4
20191121190504 65 0 0.0 3.0 0.02 0.50 0.32 85 1025.4
20191121185504 64 0 0.0 3.0 0.01 0.49 0.31 85 1026.4
20191121184503 64 0 0.0 1.0 0.01 0.49 0.31 85 1025.6
20191121184004 65 0 0.0 1.0 0.01 0.49 0.31 85 1025.8
20191121183504 65 0 0.0 5.0 0.00 0.48 0.31 85 1025.8
20191121182504 65 0 0.0 2.0 0.00 0.48 0.31 84 1025.4
20191121181005 65 0 0.0 0.0 0.00 0.48 0.31 85 1025.4
20191121180004 65 0 0.0 0.0 0.00 0.48 0.31 83 1024.7
20191121174005 66 0 0.0 0.0 0.00 0.48 0.31 84 1024.8
20191121171005 67 0 0.0 3.0 0.01 0.48 0.31 83 1024.7
20191121170004 68 0 0.0 0.0 0.01 0.48 0.31 81 1023.5
20191121165504 68 0 0.0 0.0 0.01 0.48 0.31 83 1023.6
20191121165004 69 0 0.0 1.0 0.01 0.49 0.31 83 1023.4
20191121164005 69 0 0.0 2.0 0.01 0.49 0.31 83 1023.6
20191121163005 70 0 0.0 0.0 0.00 0.48 0.30 81 1023.6
20191121162005 71 0 0.0 0.0 0.00 0.48 0.30 79 1024.0
20191121161504 71 0 0.0 0.0 0.00 0.48 0.30 78 1023.7
20191121160504 72 0 0.0 0.0 0.00 0.50 0.30 79 1023.8
20191121155504 72 0 0.0 0.0 0.00 0.52 0.30 78 1023.5
20191121155005 72 0 0.0 0.0 0.00 0.53 0.30 78 1023.7
20191121154504 72 0 0.0 0.0 0.00 0.54 0.30 77 1023.2
20191121154005 73 0 0.0 0.0 0.00 0.54 0.30 77 1023.3
20191121153504 73 0 0.0 0.0 0.00 0.56 0.30 76 1023.4
20191121153005 74 0 0.0 0.0 0.00 0.56 0.30 75 1023.2
20191121152504 74 0 0.0 0.0 0.00 0.56 0.30 74 1023.2
20191121152004 75 0 0.0 0.0 0.00 0.57 0.30 74 1023.5
20191121151504 75 0 0.0 0.0 0.00 0.57 0.30 72 1023.8
20191121151005 75 0 0.0 0.0 0.00 0.59 0.30 72 1023.9
20191121150503 75 0 0.0 0.0 0.00 0.59 0.30 71 1024.0
20191121142505 71 0 0.0 1.0 0.01 0.72 0.30 83 1023.3
20191121141004 69 0 0.0 2.0 0.01 0.98 0.30 83 1022.8
20191121135004 72 0 0.0 3.0 0.01 1.06 0.30 82 1023.2
20191121134504 73 319 1.0 9.0 0.00 1.09 0.29 80 1022.9
20191121134005 74 323 1.0 9.0 0.00 1.11 0.29 75 1022.9
20191121133504 75 0 0.0 7.0 0.00 1.13 0.29 73 1023.3
20191121133005 75 0 0.0 4.0 0.00 1.14 0.29 70 1023.3
20191121132503 76 0 0.0 6.0 0.00 1.17 0.29 69 1023.3
20191121132005 76 0 0.0 6.0 0.00 1.17 0.29 69 1023.1